TimeMST,TemperatureF,Dew PointF,Humidity,Sea Level PressureIn,VisibilityMPH,Wind Direction,Wind SpeedMPH,Gust SpeedMPH,PrecipitationIn,Events,Conditions,WindDirDegrees,DateUTC
12:15 AM,17.6,10.4,73,30.34,10.0,NE,8.1,-,N/A,,Clear,40,2014-01-16 07:15:00
12:35 AM,17.6,6.8,63,30.33,10.0,NE,4.6,-,N/A,,Clear,40,2014-01-16 07:35:00
12:55 AM,15.8,-0.4,49,30.33,10.0,East,3.5,-,N/A,,Clear,90,2014-01-16 07:55:00
1:15 AM,15.8,6.8,68,30.33,10.0,Calm,Calm,-,N/A,,Clear,0,2014-01-16 08:15:00
1:35 AM,14.0,8.6,79,30.33,10.0,NE,8.1,-,N/A,,Clear,40,2014-01-16 08:35:00
1:55 AM,10.4,-5.8,48,30.34,9.0,Calm,Calm,-,N/A,,Clear,0,2014-01-16 08:55:00
2:15 AM,12.2,6.8,79,30.34,10.0,NNE,4.6,-,N/A,,Clear,30,2014-01-16 09:15:00
2:35 AM,12.2,12.2,100,30.35,10.0,Calm,Calm,-,N/A,,Clear,0,2014-01-16 09:35:00
2:55 AM,8.6,-7.6,48,30.35,10.0,Calm,Calm,-,N/A,,Clear,0,2014-01-16 09:55:00
3:15 AM,6.8,-4.0,61,30.35,10.0,East,4.6,-,N/A,,Clear,80,2014-01-16 10:15:00
3:35 AM,6.8,5.0,92,30.35,10.0,Calm,Calm,-,N/A,,Clear,0,2014-01-16 10:35:00
3:55 AM,8.6,-5.8,52,30.34,10.0,Calm,Calm,-,N/A,,Clear,0,2014-01-16 10:55:00
4:15 AM,6.8,3.2,85,30.34,10.0,SSE,3.5,-,N/A,,Clear,160,2014-01-16 11:15:00
4:35 AM,3.2,-9.4,56,30.34,10.0,ENE,4.6,-,N/A,,Clear,60,2014-01-16 11:35:00
4:55 AM,3.2,-5.8,66,30.34,10.0,Calm,Calm,-,N/A,,Clear,0,2014-01-16 11:55:00
5:15 AM,6.8,6.8,100,30.34,10.0,North,5.8,-,N/A,,Clear,360,2014-01-16 12:15:00
5:35 AM,6.8,-14.8,37,30.35,10.0,ENE,3.5,-,N/A,,Clear,70,2014-01-16 12:35:00
5:55 AM,-0.4,-2.2,92,30.35,10.0,Calm,Calm,-,N/A,,Clear,0,2014-01-16 12:55:00
6:15 AM,-0.4,-11.2,60,30.37,10.0,Calm,Calm,-,N/A,,Clear,0,2014-01-16 13:15:00
6:35 AM,1.4,-9.4,61,30.37,10.0,Calm,Calm,-,N/A,,Clear,0,2014-01-16 13:35:00
6:55 AM,1.4,-2.2,85,30.38,10.0,Calm,Calm,-,N/A,,Clear,0,2014-01-16 13:55:00
7:15 AM,-0.4,-16.6,46,30.38,9.0,Calm,Calm,-,N/A,,Clear,0,2014-01-16 14:15:00
7:35 AM,1.4,-9999,N/A,30.39,10.0,Calm,Calm,-,N/A,,Clear,0,2014-01-16 14:35:00
7:55 AM,-2.2,-23.8,35,30.39,9.0,Calm,Calm,-,N/A,,Clear,0,2014-01-16 14:55:00
8:15 AM,-0.4,-0.4,100,30.39,10.0,Calm,Calm,-,N/A,,Clear,0,2014-01-16 15:15:00
8:35 AM,3.2,-14.8,43,30.41,10.0,Calm,Calm,-,N/A,,Clear,0,2014-01-16 15:35:00
8:55 AM,3.2,1.4,92,30.41,10.0,Calm,Calm,-,N/A,,Clear,0,2014-01-16 15:55:00
9:15 AM,1.4,-16.6,43,30.41,10.0,Calm,Calm,-,N/A,,Clear,0,2014-01-16 16:15:00
9:35 AM,5.0,-5.8,61,30.41,10.0,Calm,Calm,-,N/A,,Clear,0,2014-01-16 16:35:00
9:55 AM,5.0,-2.2,72,30.42,10.0,Calm,Calm,-,N/A,,Clear,0,2014-01-16 16:55:00
10:15 AM,6.8,-11.2,44,30.42,10.0,SE,3.5,-,N/A,,Clear,140,2014-01-16 17:15:00
10:35 AM,10.4,8.6,92,30.41,10.0,SSE,3.5,-,N/A,,Clear,160,2014-01-16 17:35:00
10:55 AM,15.8,12.2,86,30.40,10.0,ENE,4.6,-,N/A,,Clear,70,2014-01-16 17:55:00
11:15 AM,17.6,-7.6,32,30.39,10.0,Calm,Calm,-,N/A,,Clear,0,2014-01-16 18:15:00
11:35 AM,19.4,-4.0,36,30.38,10.0,Calm,Calm,-,N/A,,Clear,0,2014-01-16 18:35:00
11:55 AM,21.2,17.6,86,30.35,10.0,Calm,Calm,-,N/A,,Clear,0,2014-01-16 18:55:00
12:15 PM,21.2,12.2,68,30.34,10.0,Calm,Calm,-,N/A,,Clear,0,2014-01-16 19:15:00
12:35 PM,23.0,1.4,39,30.32,10.0,SE,4.6,-,N/A,,Clear,140,2014-01-16 19:35:00
12:55 PM,24.8,3.2,40,30.32,10.0,North,4.6,-,N/A,,Clear,360,2014-01-16 19:55:00
1:15 PM,26.6,8.6,47,30.31,10.0,North,8.1,-,N/A,,Clear,10,2014-01-16 20:15:00
1:35 PM,26.6,15.8,64,30.29,10.0,ESE,4.6,-,N/A,,Clear,120,2014-01-16 20:35:00
1:55 PM,26.6,12.2,55,30.30,10.0,SE,3.5,-,N/A,,Clear,130,2014-01-16 20:55:00
2:15 PM,26.6,8.6,47,30.29,10.0,Calm,Calm,-,N/A,,Clear,0,2014-01-16 21:15:00
2:35 PM,28.4,8.6,43,30.29,10.0,Calm,Calm,-,N/A,,Clear,0,2014-01-16 21:35:00
2:55 PM,28.4,10.4,47,30.29,8.0,SSE,3.5,-,N/A,,Clear,150,2014-01-16 21:55:00
3:15 PM,32.0,17.6,55,30.29,10.0,Calm,Calm,-,N/A,,Clear,0,2014-01-16 22:15:00
3:35 PM,32.0,15.8,51,30.29,10.0,Calm,Calm,-,N/A,,Clear,0,2014-01-16 22:35:00
3:55 PM,30.2,15.8,55,30.29,10.0,ESE,4.6,-,N/A,,Clear,120,2014-01-16 22:55:00
4:15 PM,33.8,10.4,38,30.29,10.0,East,4.6,-,N/A,,Clear,80,2014-01-16 23:15:00
4:55 PM,33.8,8.6,35,30.29,10.0,ESE,3.5,-,N/A,,Clear,120,2014-01-16 23:55:00
5:15 PM,28.4,8.6,43,30.30,10.0,Calm,Calm,-,N/A,,Clear,0,2014-01-17 00:15:00
5:55 PM,32.0,10.4,41,30.32,10.0,SSE,5.8,-,N/A,,Clear,160,2014-01-17 00:55:00
6:15 PM,28.4,8.6,43,30.32,10.0,ESE,5.8,-,N/A,,Clear,120,2014-01-17 01:15:00
6:35 PM,26.6,1.4,34,30.32,10.0,South,4.6,-,N/A,,Clear,180,2014-01-17 01:35:00
6:55 PM,24.8,6.8,46,30.32,10.0,Calm,Calm,-,N/A,,Clear,0,2014-01-17 01:55:00
7:15 PM,24.8,6.8,46,30.33,10.0,Calm,Calm,-,N/A,,Clear,0,2014-01-17 02:15:00
7:55 PM,23.0,6.8,50,30.34,10.0,East,3.5,-,N/A,,Clear,100,2014-01-17 02:55:00
8:15 PM,21.2,-0.4,39,30.35,10.0,North,4.6,-,N/A,,Clear,350,2014-01-17 03:15:00
8:35 PM,21.2,6.8,54,30.35,10.0,Calm,Calm,-,N/A,,Clear,0,2014-01-17 03:35:00
9:15 PM,17.6,3.2,53,30.36,10.0,NE,3.5,-,N/A,,Clear,40,2014-01-17 04:15:00
9:35 PM,19.4,3.2,49,30.37,10.0,Calm,Calm,-,N/A,,Clear,0,2014-01-17 04:35:00
9:55 PM,14.0,3.2,62,30.36,10.0,SSE,4.6,-,N/A,,Clear,160,2014-01-17 04:55:00
10:15 PM,10.4,5.0,79,30.37,10.0,Calm,Calm,-,N/A,,Clear,0,2014-01-17 05:15:00
10:35 PM,14.0,3.2,62,30.37,10.0,North,3.5,-,N/A,,Clear,360,2014-01-17 05:35:00
10:55 PM,12.2,-2.2,53,30.37,10.0,Calm,Calm,-,N/A,,Clear,0,2014-01-17 05:55:00
11:15 PM,8.6,3.2,79,30.37,10.0,Calm,Calm,-,N/A,,Clear,0,2014-01-17 06:15:00
11:35 PM,8.6,3.2,79,30.37,10.0,North,4.6,-,N/A,,Clear,10,2014-01-17 06:35:00
11:55 PM,10.4,1.4,67,30.37,7.0,North,4.6,-,N/A,,Clear,360,2014-01-17 06:55:00